contact:dominique.lefevre@mio.osupytheas.fr, maurice.libes@osupytheas.fr, didier.mallarino@osupytheas.fr
Project:EMSO http://www.emso-fr.org/EMSO-France
Depth: 2436.0 m
Title:EMSO Ligure Ouest : Data MII capteur MICROCAT
DateTime_Computer,Latitude,Longitude,Temperature,Conductivity,Pressure,DateTime_Instrument
DateTime_Computer,Latitude,Longitude,degC,S m-1,dbar,DateTime_Instrument
2021-11-06T00:00:28Z,42.805,6.029,13.2997,4.60014,2470.437,2021-11-06T02:01:53Z
2021-11-06T00:03:31Z,42.805,6.029,13.2994,4.60015,2470.437,2021-11-06T02:04:56Z
2021-11-06T00:06:34Z,42.805,6.029,13.2993,4.60016,2470.39,2021-11-06T02:07:59Z
2021-11-06T00:09:37Z,42.805,6.029,13.2995,4.60013,2470.39,2021-11-06T02:11:02Z
2021-11-06T00:12:40Z,42.805,6.029,13.2993,4.60016,2470.427,2021-11-06T02:14:05Z
2021-11-06T00:15:43Z,42.805,6.029,13.2991,4.60011,2470.45,2021-11-06T02:17:08Z
2021-11-06T00:18:46Z,42.805,6.029,13.2990,4.60016,2470.39,2021-11-06T02:20:11Z
2021-11-06T00:21:49Z,42.805,6.029,13.2990,4.60014,2470.427,2021-11-06T02:23:15Z
2021-11-06T00:24:52Z,42.805,6.029,13.2996,4.60014,2470.38,2021-11-06T02:26:18Z
2021-11-06T00:27:56Z,42.805,6.029,13.2993,4.60012,2470.39,2021-11-06T02:29:21Z
2021-11-06T00:30:59Z,42.805,6.029,13.2991,4.60014,2470.427,2021-11-06T02:32:24Z
2021-11-06T00:34:02Z,42.805,6.029,13.2993,4.60011,2470.404,2021-11-06T02:35:27Z
2021-11-06T00:37:05Z,42.805,6.029,13.2988,4.60011,2470.39,2021-11-06T02:38:30Z
2021-11-06T00:40:08Z,42.805,6.029,13.2991,4.60016,2470.427,2021-11-06T02:41:33Z
2021-11-06T00:43:11Z,42.805,6.029,13.2993,4.60016,2470.413,2021-11-06T02:44:36Z
2021-11-06T00:46:14Z,42.805,6.029,13.2995,4.60016,2470.38,2021-11-06T02:47:40Z
2021-11-06T00:49:17Z,42.805,6.029,13.2993,4.60015,2470.404,2021-11-06T02:50:43Z
2021-11-06T00:52:21Z,42.805,6.029,13.2991,4.60015,2470.427,2021-11-06T02:53:46Z
2021-11-06T00:55:24Z,42.805,6.029,13.2993,4.60016,2470.404,2021-11-06T02:56:49Z
2021-11-06T00:58:27Z,42.805,6.029,13.2993,4.60015,2470.343,2021-11-06T02:59:52Z
2021-11-06T01:01:30Z,42.805,6.029,13.2995,4.60014,2470.427,2021-11-06T03:02:55Z
2021-11-06T01:04:33Z,42.805,6.029,13.2990,4.60016,2470.404,2021-11-06T03:05:58Z
2021-11-06T01:07:36Z,42.805,6.029,13.2993,4.60015,2470.38,2021-11-06T03:09:01Z
2021-11-06T01:10:39Z,42.805,6.029,13.2992,4.60016,2470.366,2021-11-06T03:12:04Z
2021-11-06T01:13:42Z,42.805,6.029,13.2990,4.60014,2470.366,2021-11-06T03:15:08Z
2021-11-06T01:16:45Z,42.805,6.029,13.2996,4.60014,2470.366,2021-11-06T03:18:11Z
2021-11-06T01:19:49Z,42.805,6.029,13.2993,4.60014,2470.404,2021-11-06T03:21:14Z
2021-11-06T01:22:52Z,42.805,6.029,13.2993,4.60016,2470.38,2021-11-06T03:24:17Z
2021-11-06T01:25:55Z,42.805,6.029,13.2994,4.60016,2470.357,2021-11-06T03:27:20Z
2021-11-06T01:28:58Z,42.805,6.029,13.2998,4.60015,2470.366,2021-11-06T03:30:23Z
2021-11-06T01:32:01Z,42.805,6.029,13.2994,4.60019,2470.366,2021-11-06T03:33:26Z
2021-11-06T01:35:04Z,42.805,6.029,13.2995,4.60016,2470.357,2021-11-06T03:36:29Z
2021-11-06T01:38:07Z,42.805,6.029,13.2993,4.60016,2470.357,2021-11-06T03:39:33Z
2021-11-06T01:41:10Z,42.805,6.029,13.2993,4.60015,2470.39,2021-11-06T03:42:36Z
2021-11-06T01:44:14Z,42.805,6.029,13.2992,4.60016,2470.366,2021-11-06T03:45:39Z
2021-11-06T01:47:17Z,42.805,6.029,13.2992,4.60014,2470.39,2021-11-06T03:48:42Z
2021-11-06T01:50:20Z,42.805,6.029,13.2993,4.60011,2470.343,2021-11-06T03:51:45Z
2021-11-06T01:53:23Z,42.805,6.029,13.2990,4.60015,2470.357,2021-11-06T03:54:48Z
2021-11-06T01:56:26Z,42.805,6.029,13.2992,4.60014,2470.366,2021-11-06T03:57:51Z
2021-11-06T01:59:29Z,42.805,6.029,13.2990,4.60011,2470.357,2021-11-06T04:00:54Z
2021-11-06T02:02:32Z,42.805,6.029,13.2991,4.60012,2470.32,2021-11-06T04:03:57Z
2021-11-06T02:05:35Z,42.805,6.029,13.2991,4.60011,2470.366,2021-11-06T04:07:01Z
2021-11-06T02:08:38Z,42.805,6.029,13.2993,4.60012,2470.343,2021-11-06T04:10:04Z
2021-11-06T02:11:42Z,42.805,6.029,13.2991,4.60014,2470.366,2021-11-06T04:13:07Z
2021-11-06T02:14:45Z,42.805,6.029,13.2993,4.60014,2470.334,2021-11-06T04:16:10Z
2021-11-06T02:17:48Z,42.805,6.029,13.2991,4.60011,2470.366,2021-11-06T04:19:13Z
2021-11-06T02:20:51Z,42.805,6.029,13.2995,4.60014,2470.334,2021-11-06T04:22:16Z
2021-11-06T02:23:54Z,42.805,6.029,13.2993,4.60013,2470.38,2021-11-06T04:25:19Z
2021-11-06T02:26:57Z,42.805,6.029,13.2994,4.60014,2470.357,2021-11-06T04:28:22Z
2021-11-06T02:30:00Z,42.805,6.029,13.2994,4.60014,2470.366,2021-11-06T04:31:26Z
2021-11-06T02:33:03Z,42.805,6.029,13.2991,4.60015,2470.32,2021-11-06T04:34:29Z
2021-11-06T02:36:06Z,42.805,6.029,13.2993,4.60014,2470.366,2021-11-06T04:37:32Z
2021-11-06T02:39:10Z,42.805,6.029,13.2990,4.60010,2470.366,2021-11-06T04:40:35Z
2021-11-06T02:42:13Z,42.805,6.029,13.2993,4.60013,2470.38,2021-11-06T04:43:38Z
2021-11-06T02:45:16Z,42.805,6.029,13.2991,4.60014,2470.357,2021-11-06T04:46:41Z
2021-11-06T02:48:19Z,42.805,6.029,13.2992,4.60012,2470.366,2021-11-06T04:49:44Z
2021-11-06T02:51:22Z,42.805,6.029,13.2991,4.60013,2470.38,2021-11-06T04:52:47Z
2021-11-06T02:54:25Z,42.805,6.029,13.2991,4.60011,2470.343,2021-11-06T04:55:50Z
2021-11-06T02:57:28Z,42.805,6.029,13.2990,4.60011,2470.38,2021-11-06T04:58:54Z
2021-11-06T03:00:31Z,42.805,6.029,13.2994,4.60013,2470.357,2021-11-06T05:01:57Z
2021-11-06T03:03:35Z,42.805,6.029,13.2990,4.60014,2470.38,2021-11-06T05:05:00Z
2021-11-06T03:06:38Z,42.805,6.029,13.2992,4.60013,2470.39,2021-11-06T05:08:03Z
2021-11-06T03:09:41Z,42.805,6.029,13.2990,4.60013,2470.366,2021-11-06T05:11:06Z
2021-11-06T03:12:44Z,42.805,6.029,13.2991,4.60013,2470.366,2021-11-06T05:14:09Z
2021-11-06T03:15:47Z,42.805,6.029,13.2991,4.60013,2470.343,2021-11-06T05:17:12Z
2021-11-06T03:18:50Z,42.805,6.029,13.2992,4.60011,2470.38,2021-11-06T05:20:15Z
2021-11-06T03:21:53Z,42.805,6.029,13.2993,4.60013,2470.343,2021-11-06T05:23:19Z
2021-11-06T03:24:56Z,42.805,6.029,13.2990,4.60013,2470.366,2021-11-06T05:26:22Z
2021-11-06T03:27:59Z,42.805,6.029,13.2991,4.60015,2470.39,2021-11-06T05:29:25Z
2021-11-06T03:31:03Z,42.805,6.029,13.2989,4.60014,2470.366,2021-11-06T05:32:28Z
2021-11-06T03:34:06Z,42.805,6.029,13.2989,4.60015,2470.427,2021-11-06T05:35:31Z
2021-11-06T03:37:09Z,42.805,6.029,13.2993,4.60012,2470.366,2021-11-06T05:38:34Z
2021-11-06T03:40:12Z,42.805,6.029,13.2991,4.60011,2470.39,2021-11-06T05:41:37Z
2021-11-06T03:43:15Z,42.805,6.029,13.2991,4.60012,2470.366,2021-11-06T05:44:40Z
2021-11-06T03:46:18Z,42.805,6.029,13.2992,4.60014,2470.39,2021-11-06T05:47:43Z
2021-11-06T03:49:21Z,42.805,6.029,13.2990,4.60011,2470.413,2021-11-06T05:50:47Z
2021-11-06T03:52:24Z,42.805,6.029,13.2990,4.60012,2470.38,2021-11-06T05:53:50Z
2021-11-06T03:55:28Z,42.805,6.029,13.2990,4.60012,2470.404,2021-11-06T05:56:53Z
2021-11-06T03:58:31Z,42.805,6.029,13.2993,4.60011,2470.366,2021-11-06T05:59:56Z
2021-11-06T04:01:34Z,42.805,6.029,13.2993,4.60011,2470.399,2021-11-06T06:02:59Z
2021-11-06T04:04:37Z,42.805,6.029,13.2993,4.60010,2470.399,2021-11-06T06:06:02Z
2021-11-06T04:07:40Z,42.805,6.029,13.2995,4.60012,2470.427,2021-11-06T06:09:05Z
2021-11-06T04:10:43Z,42.805,6.029,13.2993,4.60011,2470.39,2021-11-06T06:12:08Z
2021-11-06T04:13:46Z,42.805,6.029,13.2991,4.60014,2470.427,2021-11-06T06:15:12Z
2021-11-06T04:16:49Z,42.805,6.029,13.2991,4.60012,2470.423,2021-11-06T06:18:15Z
2021-11-06T04:19:53Z,42.805,6.029,13.2992,4.60012,2470.413,2021-11-06T06:21:18Z
2021-11-06T04:22:56Z,42.805,6.029,13.2988,4.60013,2470.399,2021-11-06T06:24:21Z
2021-11-06T04:25:59Z,42.805,6.029,13.2993,4.60012,2470.45,2021-11-06T06:27:24Z
2021-11-06T04:29:02Z,42.805,6.029,13.2992,4.60011,2470.437,2021-11-06T06:30:27Z
2021-11-06T04:32:05Z,42.805,6.029,13.2996,4.60013,2470.437,2021-11-06T06:33:30Z
2021-11-06T04:35:08Z,42.805,6.029,13.2994,4.60013,2470.46,2021-11-06T06:36:33Z
2021-11-06T04:38:11Z,42.805,6.029,13.2988,4.60012,2470.437,2021-11-06T06:39:36Z
2021-11-06T04:41:14Z,42.805,6.029,13.2992,4.60013,2470.437,2021-11-06T06:42:40Z
2021-11-06T04:44:17Z,42.805,6.029,13.2990,4.60011,2470.437,2021-11-06T06:45:43Z
2021-11-06T04:47:21Z,42.805,6.029,13.2991,4.60011,2470.474,2021-11-06T06:48:46Z
2021-11-06T04:50:24Z,42.805,6.029,13.2989,4.60014,2470.483,2021-11-06T06:51:49Z
2021-11-06T04:53:27Z,42.805,6.029,13.2993,4.60011,2470.497,2021-11-06T06:54:52Z
2021-11-06T04:56:30Z,42.805,6.029,13.2991,4.60014,2470.46,2021-11-06T06:57:55Z
2021-11-06T04:59:33Z,42.805,6.029,13.2990,4.60014,2470.497,2021-11-06T07:00:58Z
2021-11-06T05:02:36Z,42.805,6.029,13.2993,4.60014,2470.52,2021-11-06T07:04:01Z
2021-11-06T05:05:39Z,42.805,6.029,13.2993,4.60012,2470.497,2021-11-06T07:07:05Z
2021-11-06T05:08:42Z,42.805,6.029,13.2993,4.60011,2470.47,2021-11-06T07:10:08Z
2021-11-06T05:11:46Z,42.805,6.029,13.2990,4.60012,2470.52,2021-11-06T07:13:11Z
2021-11-06T05:14:49Z,42.805,6.029,13.2991,4.60011,2470.507,2021-11-06T07:16:14Z
2021-11-06T05:17:52Z,42.805,6.029,13.2991,4.60013,2470.544,2021-11-06T07:19:17Z
2021-11-06T05:20:55Z,42.805,6.029,13.2991,4.60013,2470.53,2021-11-06T07:22:20Z
2021-11-06T05:23:58Z,42.805,6.029,13.2991,4.60012,2470.497,2021-11-06T07:25:23Z
2021-11-06T05:27:01Z,42.805,6.029,13.2992,4.60012,2470.507,2021-11-06T07:28:26Z
2021-11-06T05:30:04Z,42.805,6.029,13.2992,4.60012,2470.544,2021-11-06T07:31:30Z
2021-11-06T05:33:07Z,42.805,6.029,13.2992,4.60014,2470.507,2021-11-06T07:34:33Z
2021-11-06T05:36:10Z,42.805,6.029,13.2991,4.60011,2470.53,2021-11-06T07:37:36Z
2021-11-06T05:39:14Z,42.805,6.029,13.2993,4.60012,2470.591,2021-11-06T07:40:39Z
2021-11-06T05:42:17Z,42.805,6.029,13.2993,4.60014,2470.53,2021-11-06T07:43:42Z
2021-11-06T05:45:20Z,42.805,6.029,13.2988,4.60015,2470.53,2021-11-06T07:46:45Z
2021-11-06T05:48:23Z,42.805,6.029,13.2992,4.60013,2470.53,2021-11-06T07:49:48Z
2021-11-06T05:51:26Z,42.805,6.029,13.2993,4.60015,2470.567,2021-11-06T07:52:51Z
2021-11-06T05:54:29Z,42.805,6.029,13.2996,4.60015,2470.577,2021-11-06T07:55:54Z
2021-11-06T05:57:32Z,42.805,6.029,13.2991,4.60014,2470.591,2021-11-06T07:58:58Z
2021-11-06T06:00:35Z,42.805,6.029,13.2991,4.60014,2470.53,2021-11-06T08:02:01Z
2021-11-06T06:03:39Z,42.805,6.029,13.2996,4.60011,2470.53,2021-11-06T08:05:04Z
2021-11-06T06:06:42Z,42.805,6.029,13.2995,4.60013,2470.567,2021-11-06T08:08:07Z
2021-11-06T06:09:45Z,42.805,6.029,13.2992,4.60016,2470.577,2021-11-06T08:11:10Z
2021-11-06T06:12:48Z,42.805,6.029,13.2994,4.60014,2470.591,2021-11-06T08:14:13Z
2021-11-06T06:15:51Z,42.805,6.029,13.2993,4.60014,2470.577,2021-11-06T08:17:16Z
2021-11-06T06:18:54Z,42.805,6.029,13.2995,4.60011,2470.567,2021-11-06T08:20:19Z
2021-11-06T06:21:57Z,42.805,6.029,13.2992,4.60013,2470.577,2021-11-06T08:23:23Z
2021-11-06T06:25:00Z,42.805,6.029,13.2994,4.60014,2470.577,2021-11-06T08:26:26Z
2021-11-06T06:28:04Z,42.805,6.029,13.2990,4.60014,2470.591,2021-11-06T08:29:29Z
2021-11-06T06:31:07Z,42.805,6.029,13.2993,4.60014,2470.567,2021-11-06T08:32:32Z
2021-11-06T06:34:10Z,42.805,6.029,13.2991,4.60011,2470.614,2021-11-06T08:35:35Z
2021-11-06T06:37:13Z,42.805,6.029,13.2992,4.60013,2470.6,2021-11-06T08:38:38Z
2021-11-06T06:40:16Z,42.805,6.029,13.2991,4.60011,2470.6,2021-11-06T08:41:41Z
2021-11-06T06:43:19Z,42.805,6.029,13.2991,4.60014,2470.6,2021-11-06T08:44:44Z
2021-11-06T06:46:22Z,42.805,6.029,13.2989,4.60013,2470.577,2021-11-06T08:47:48Z
2021-11-06T06:49:25Z,42.805,6.029,13.2993,4.60015,2470.637,2021-11-06T08:50:51Z
2021-11-06T06:52:29Z,42.805,6.029,13.2992,4.60013,2470.637,2021-11-06T08:53:54Z
2021-11-06T06:55:32Z,42.805,6.029,13.2991,4.60013,2470.624,2021-11-06T08:56:57Z
2021-11-06T06:58:35Z,42.805,6.029,13.2990,4.60013,2470.6,2021-11-06T09:00:00Z
2021-11-06T07:01:38Z,42.805,6.029,13.2992,4.60014,2470.6,2021-11-06T09:03:03Z
2021-11-06T07:04:41Z,42.805,6.029,13.2993,4.60013,2470.6,2021-11-06T09:06:06Z
2021-11-06T07:07:44Z,42.805,6.029,13.2995,4.60014,2470.624,2021-11-06T09:09:09Z
2021-11-06T07:10:47Z,42.805,6.029,13.2991,4.60012,2470.684,2021-11-06T09:12:12Z
2021-11-06T07:13:50Z,42.805,6.029,13.2993,4.60013,2470.637,2021-11-06T09:15:16Z
2021-11-06T07:16:53Z,42.805,6.029,13.2995,4.60013,2470.661,2021-11-06T09:18:19Z
2021-11-06T07:19:57Z,42.805,6.029,13.2993,4.60013,2470.624,2021-11-06T09:21:22Z
2021-11-06T07:23:00Z,42.805,6.029,13.2994,4.60014,2470.661,2021-11-06T09:24:25Z
2021-11-06T07:26:03Z,42.805,6.029,13.2994,4.60015,2470.614,2021-11-06T09:27:28Z
2021-11-06T07:29:06Z,42.805,6.029,13.2991,4.60014,2470.624,2021-11-06T09:30:31Z
2021-11-06T07:32:09Z,42.805,6.029,13.2993,4.60014,2470.614,2021-11-06T09:33:34Z
2021-11-06T07:35:12Z,42.805,6.029,13.2992,4.60014,2470.67,2021-11-06T09:36:37Z
2021-11-06T07:38:15Z,42.805,6.029,13.2993,4.60013,2470.661,2021-11-06T09:39:40Z
2021-11-06T07:41:18Z,42.805,6.029,13.2993,4.60014,2470.624,2021-11-06T09:42:44Z
2021-11-06T07:44:21Z,42.805,6.029,13.2993,4.60014,2470.637,2021-11-06T09:45:47Z
2021-11-06T07:47:25Z,42.805,6.029,13.2991,4.60013,2470.661,2021-11-06T09:48:50Z
2021-11-06T07:50:28Z,42.805,6.029,13.2990,4.60014,2470.646,2021-11-06T09:51:53Z
2021-11-06T07:53:31Z,42.805,6.029,13.2991,4.60014,2470.624,2021-11-06T09:54:56Z
2021-11-06T07:56:34Z,42.805,6.029,13.2990,4.60014,2470.614,2021-11-06T09:57:59Z
2021-11-06T07:59:37Z,42.805,6.029,13.2990,4.60014,2470.67,2021-11-06T10:01:02Z
2021-11-06T08:02:40Z,42.805,6.029,13.2991,4.60014,2470.624,2021-11-06T10:04:05Z
2021-11-06T08:05:43Z,42.805,6.029,13.2990,4.60016,2470.646,2021-11-06T10:07:09Z
2021-11-06T08:08:46Z,42.805,6.029,13.2991,4.60016,2470.661,2021-11-06T10:10:12Z
2021-11-06T08:11:50Z,42.805,6.029,13.2991,4.60015,2470.6,2021-11-06T10:13:15Z
2021-11-06T08:14:53Z,42.805,6.029,13.2989,4.60016,2470.624,2021-11-06T10:16:18Z
2021-11-06T08:17:56Z,42.805,6.029,13.2991,4.60014,2470.646,2021-11-06T10:19:21Z
2021-11-06T08:20:59Z,42.805,6.029,13.2991,4.60015,2470.637,2021-11-06T10:22:24Z
2021-11-06T08:24:02Z,42.805,6.029,13.2990,4.60014,2470.637,2021-11-06T10:25:27Z
2021-11-06T08:27:05Z,42.805,6.029,13.2991,4.60014,2470.646,2021-11-06T10:28:30Z
2021-11-06T08:30:08Z,42.805,6.029,13.2996,4.60014,2470.661,2021-11-06T10:31:34Z
2021-11-06T08:33:11Z,42.805,6.029,13.2993,4.60014,2470.661,2021-11-06T10:34:37Z
2021-11-06T08:36:15Z,42.805,6.029,13.2993,4.60013,2470.624,2021-11-06T10:37:40Z
2021-11-06T08:39:18Z,42.805,6.029,13.2994,4.60015,2470.637,2021-11-06T10:40:43Z
2021-11-06T08:42:21Z,42.805,6.029,13.2991,4.60013,2470.637,2021-11-06T10:43:46Z
2021-11-06T08:45:24Z,42.805,6.029,13.2991,4.60013,2470.6,2021-11-06T10:46:49Z
2021-11-06T08:48:27Z,42.805,6.029,13.2990,4.60015,2470.624,2021-11-06T10:49:52Z
2021-11-06T08:51:30Z,42.805,6.029,13.2990,4.60016,2470.646,2021-11-06T10:52:55Z
2021-11-06T08:54:33Z,42.805,6.029,13.2993,4.60015,2470.637,2021-11-06T10:55:59Z
2021-11-06T08:57:36Z,42.805,6.029,13.2992,4.60014,2470.624,2021-11-06T10:59:02Z
2021-11-06T09:00:40Z,42.805,6.029,13.2991,4.60014,2470.646,2021-11-06T11:02:05Z
2021-11-06T09:03:43Z,42.805,6.029,13.2991,4.60014,2470.624,2021-11-06T11:05:08Z
2021-11-06T09:06:46Z,42.805,6.029,13.2993,4.60014,2470.6,2021-11-06T11:08:11Z
2021-11-06T09:09:49Z,42.805,6.029,13.2991,4.60014,2470.637,2021-11-06T11:11:14Z
2021-11-06T09:12:52Z,42.805,6.029,13.2993,4.60014,2470.6,2021-11-06T11:14:17Z
2021-11-06T09:15:55Z,42.805,6.029,13.2995,4.60014,2470.637,2021-11-06T11:17:20Z
2021-11-06T09:18:58Z,42.805,6.029,13.2991,4.60013,2470.614,2021-11-06T11:20:24Z
2021-11-06T09:22:01Z,42.805,6.029,13.2991,4.60015,2470.6,2021-11-06T11:23:27Z
2021-11-06T09:25:04Z,42.805,6.029,13.2995,4.60014,2470.614,2021-11-06T11:26:30Z
2021-11-06T09:28:08Z,42.805,6.029,13.2995,4.60016,2470.614,2021-11-06T11:29:33Z
2021-11-06T09:31:11Z,42.805,6.029,13.2991,4.60014,2470.614,2021-11-06T11:32:36Z
2021-11-06T09:34:14Z,42.805,6.029,13.2993,4.60014,2470.553,2021-11-06T11:35:39Z
2021-11-06T09:37:17Z,42.805,6.029,13.2991,4.60014,2470.591,2021-11-06T11:38:42Z
2021-11-06T09:40:20Z,42.805,6.029,13.2993,4.60013,2470.577,2021-11-06T11:41:45Z
2021-11-06T09:43:23Z,42.805,6.029,13.2991,4.60015,2470.591,2021-11-06T11:44:48Z
2021-11-06T09:46:26Z,42.805,6.029,13.2994,4.60013,2470.577,2021-11-06T11:47:52Z
2021-11-06T09:49:29Z,42.805,6.029,13.2992,4.60014,2470.577,2021-11-06T11:50:55Z
2021-11-06T09:52:33Z,42.805,6.029,13.2991,4.60014,2470.553,2021-11-06T11:53:58Z
2021-11-06T09:55:36Z,42.805,6.029,13.2994,4.60013,2470.577,2021-11-06T11:57:01Z
2021-11-06T09:58:39Z,42.805,6.029,13.2991,4.60013,2470.567,2021-11-06T12:00:04Z
2021-11-06T10:01:42Z,42.805,6.029,13.2991,4.60014,2470.591,2021-11-06T12:03:07Z
2021-11-06T10:04:45Z,42.805,6.029,13.2991,4.60014,2470.577,2021-11-06T12:06:10Z
2021-11-06T10:07:48Z,42.805,6.029,13.2990,4.60013,2470.553,2021-11-06T12:09:13Z
2021-11-06T10:10:51Z,42.805,6.029,13.2990,4.60013,2470.6,2021-11-06T12:12:17Z
2021-11-06T10:13:54Z,42.805,6.029,13.2993,4.60011,2470.577,2021-11-06T12:15:20Z
2021-11-06T10:16:58Z,42.805,6.029,13.2993,4.60013,2470.577,2021-11-06T12:18:23Z
2021-11-06T10:20:01Z,42.805,6.029,13.2990,4.60012,2470.553,2021-11-06T12:21:26Z
2021-11-06T10:23:04Z,42.805,6.029,13.2993,4.60011,2470.591,2021-11-06T12:24:29Z
2021-11-06T10:26:07Z,42.805,6.029,13.2992,4.60012,2470.577,2021-11-06T12:27:32Z
2021-11-06T10:29:10Z,42.805,6.029,13.2993,4.60011,2470.53,2021-11-06T12:30:35Z
2021-11-06T10:32:13Z,42.805,6.029,13.2991,4.60014,2470.591,2021-11-06T12:33:38Z
2021-11-06T10:35:16Z,42.805,6.029,13.2990,4.60013,2470.553,2021-11-06T12:36:42Z
2021-11-06T10:38:19Z,42.805,6.029,13.2990,4.60014,2470.544,2021-11-06T12:39:45Z
2021-11-06T10:41:23Z,42.805,6.029,13.2993,4.60012,2470.567,2021-11-06T12:42:48Z
2021-11-06T10:44:26Z,42.805,6.029,13.2992,4.60013,2470.544,2021-11-06T12:45:51Z
2021-11-06T10:47:29Z,42.805,6.029,13.2993,4.60014,2470.53,2021-11-06T12:48:54Z
2021-11-06T10:50:32Z,42.805,6.029,13.2996,4.60013,2470.591,2021-11-06T12:51:57Z
2021-11-06T10:53:35Z,42.805,6.029,13.2990,4.60014,2470.544,2021-11-06T12:55:00Z
2021-11-06T10:56:38Z,42.805,6.029,13.2993,4.60013,2470.567,2021-11-06T12:58:03Z
2021-11-06T10:59:41Z,42.805,6.029,13.2993,4.60014,2470.53,2021-11-06T13:01:07Z
2021-11-06T11:02:44Z,42.805,6.029,13.2986,4.60013,2470.53,2021-11-06T13:04:10Z
2021-11-06T11:05:48Z,42.805,6.029,13.2988,4.60011,2470.544,2021-11-06T13:07:13Z
2021-11-06T11:08:51Z,42.805,6.029,13.2991,4.60011,2470.567,2021-11-06T13:10:16Z
2021-11-06T11:11:54Z,42.805,6.029,13.2994,4.60015,2470.53,2021-11-06T13:13:19Z
2021-11-06T11:14:57Z,42.805,6.029,13.2991,4.60013,2470.497,2021-11-06T13:16:22Z
2021-11-06T11:18:00Z,42.805,6.029,13.2997,4.60014,2470.483,2021-11-06T13:19:25Z
2021-11-06T11:21:03Z,42.805,6.029,13.2990,4.60013,2470.544,2021-11-06T13:22:28Z
2021-11-06T11:24:06Z,42.805,6.029,13.2994,4.60014,2470.544,2021-11-06T13:25:32Z
2021-11-06T11:27:09Z,42.805,6.029,13.2991,4.60012,2470.52,2021-11-06T13:28:35Z
2021-11-06T11:30:13Z,42.805,6.029,13.2993,4.60014,2470.544,2021-11-06T13:31:38Z
2021-11-06T11:33:16Z,42.805,6.029,13.2994,4.60013,2470.507,2021-11-06T13:34:41Z
2021-11-06T11:36:19Z,42.805,6.029,13.2996,4.60014,2470.53,2021-11-06T13:37:44Z
2021-11-06T11:39:22Z,42.805,6.029,13.2992,4.60014,2470.544,2021-11-06T13:40:47Z
2021-11-06T11:42:25Z,42.805,6.029,13.2995,4.60012,2470.53,2021-11-06T13:43:50Z
2021-11-06T11:45:28Z,42.805,6.029,13.2993,4.60013,2470.53,2021-11-06T13:46:53Z
2021-11-06T11:48:31Z,42.805,6.029,13.2986,4.60011,2470.53,2021-11-06T13:49:57Z
2021-11-06T11:51:34Z,42.805,6.029,13.2990,4.60011,2470.483,2021-11-06T13:53:00Z
2021-11-06T11:54:38Z,42.805,6.029,13.2992,4.60011,2470.507,2021-11-06T13:56:03Z
2021-11-06T11:57:41Z,42.805,6.029,13.2989,4.60014,2470.483,2021-11-06T13:59:06Z
2021-11-06T12:00:44Z,42.805,6.029,13.2987,4.60014,2470.544,2021-11-06T14:02:09Z
2021-11-06T12:03:47Z,42.805,6.029,13.2994,4.60011,2470.507,2021-11-06T14:05:12Z
2021-11-06T12:06:50Z,42.805,6.029,13.2991,4.60010,2470.483,2021-11-06T14:08:15Z
2021-11-06T12:09:53Z,42.805,6.029,13.2992,4.60012,2470.46,2021-11-06T14:11:18Z
2021-11-06T12:12:56Z,42.805,6.029,13.2994,4.60011,2470.507,2021-11-06T14:14:21Z
2021-11-06T12:15:59Z,42.805,6.029,13.2991,4.60011,2470.483,2021-11-06T14:17:25Z
2021-11-06T12:19:02Z,42.805,6.029,13.2991,4.60011,2470.507,2021-11-06T14:20:28Z
2021-11-06T12:22:06Z,42.805,6.029,13.2993,4.60014,2470.46,2021-11-06T14:23:31Z
2021-11-06T12:25:09Z,42.805,6.029,13.2991,4.60012,2470.437,2021-11-06T14:26:34Z
2021-11-06T12:28:12Z,42.805,6.029,13.2993,4.60016,2470.437,2021-11-06T14:29:37Z
2021-11-06T12:31:15Z,42.805,6.029,13.2990,4.60013,2470.46,2021-11-06T14:32:40Z
2021-11-06T12:34:18Z,42.805,6.029,13.2991,4.60013,2470.437,2021-11-06T14:35:43Z
2021-11-06T12:37:21Z,42.805,6.029,13.2990,4.60015,2470.46,2021-11-06T14:38:46Z
2021-11-06T12:40:24Z,42.805,6.029,13.2993,4.60014,2470.437,2021-11-06T14:41:50Z
2021-11-06T12:43:27Z,42.805,6.029,13.2993,4.60013,2470.46,2021-11-06T14:44:53Z
2021-11-06T12:46:31Z,42.805,6.029,13.2993,4.60011,2470.46,2021-11-06T14:47:56Z
2021-11-06T12:49:34Z,42.805,6.029,13.2990,4.60012,2470.46,2021-11-06T14:50:59Z
2021-11-06T12:52:37Z,42.805,6.029,13.2991,4.60012,2470.46,2021-11-06T14:54:02Z
2021-11-06T12:55:40Z,42.805,6.029,13.2993,4.60014,2470.46,2021-11-06T14:57:05Z
2021-11-06T12:58:43Z,42.805,6.029,13.2991,4.60014,2470.497,2021-11-06T15:00:08Z
2021-11-06T13:01:46Z,42.805,6.029,13.2991,4.60014,2470.474,2021-11-06T15:03:11Z
2021-11-06T13:04:49Z,42.805,6.029,13.2992,4.60012,2470.46,2021-11-06T15:06:15Z
2021-11-06T13:07:52Z,42.805,6.029,13.2993,4.60013,2470.437,2021-11-06T15:09:18Z
2021-11-06T13:10:55Z,42.805,6.029,13.2991,4.60013,2470.437,2021-11-06T15:12:21Z
2021-11-06T13:13:59Z,42.805,6.029,13.2993,4.60014,2470.46,2021-11-06T15:15:24Z
2021-11-06T13:17:02Z,42.805,6.029,13.2994,4.60013,2470.413,2021-11-06T15:18:27Z
2021-11-06T13:20:05Z,42.805,6.029,13.2991,4.60014,2470.413,2021-11-06T15:21:30Z
2021-11-06T13:23:08Z,42.805,6.029,13.2993,4.60011,2470.437,2021-11-06T15:24:33Z
2021-11-06T13:26:11Z,42.805,6.029,13.2990,4.60014,2470.437,2021-11-06T15:27:36Z
2021-11-06T13:29:14Z,42.805,6.029,13.2993,4.60016,2470.413,2021-11-06T15:30:40Z
2021-11-06T13:32:17Z,42.805,6.029,13.2998,4.60013,2470.437,2021-11-06T15:33:43Z
2021-11-06T13:35:20Z,42.805,6.029,13.2991,4.60013,2470.413,2021-11-06T15:36:46Z
2021-11-06T13:38:24Z,42.805,6.029,13.2998,4.60013,2470.427,2021-11-06T15:39:49Z
2021-11-06T13:41:27Z,42.805,6.029,13.2992,4.60012,2470.399,2021-11-06T15:42:52Z
2021-11-06T13:44:30Z,42.805,6.029,13.2991,4.60016,2470.413,2021-11-06T15:45:55Z
2021-11-06T13:47:33Z,42.805,6.029,13.2995,4.60015,2470.437,2021-11-06T15:48:58Z
2021-11-06T13:50:36Z,42.805,6.029,13.2990,4.60011,2470.427,2021-11-06T15:52:01Z
2021-11-06T13:53:39Z,42.805,6.029,13.2991,4.60013,2470.39,2021-11-06T15:55:05Z
2021-11-06T13:56:42Z,42.805,6.029,13.2995,4.60013,2470.413,2021-11-06T15:58:08Z
2021-11-06T13:59:45Z,42.805,6.029,13.2991,4.60011,2470.413,2021-11-06T16:01:11Z
2021-11-06T14:02:49Z,42.805,6.029,13.2993,4.60012,2470.413,2021-11-06T16:04:14Z
2021-11-06T14:05:52Z,42.805,6.029,13.2990,4.60012,2470.39,2021-11-06T16:07:17Z
2021-11-06T14:08:55Z,42.805,6.029,13.2993,4.60011,2470.366,2021-11-06T16:10:20Z
2021-11-06T14:11:58Z,42.805,6.029,13.2996,4.60012,2470.39,2021-11-06T16:13:23Z
2021-11-06T14:15:01Z,42.805,6.029,13.2993,4.60014,2470.366,2021-11-06T16:16:26Z
2021-11-06T14:18:04Z,42.805,6.029,13.2991,4.60011,2470.376,2021-11-06T16:19:29Z
2021-11-06T14:21:07Z,42.805,6.029,13.2994,4.60014,2470.39,2021-11-06T16:22:33Z
2021-11-06T14:24:10Z,42.805,6.029,13.2991,4.60012,2470.427,2021-11-06T16:25:36Z
2021-11-06T14:27:14Z,42.805,6.029,13.2991,4.60014,2470.39,2021-11-06T16:28:39Z
2021-11-06T14:30:17Z,42.805,6.029,13.2995,4.60013,2470.366,2021-11-06T16:31:42Z
2021-11-06T14:33:20Z,42.805,6.029,13.2992,4.60011,2470.366,2021-11-06T16:34:45Z
2021-11-06T14:36:23Z,42.805,6.029,13.2996,4.60014,2470.39,2021-11-06T16:37:48Z
2021-11-06T14:39:26Z,42.805,6.029,13.2991,4.60014,2470.39,2021-11-06T16:40:51Z
2021-11-06T14:42:29Z,42.805,6.029,13.2993,4.60016,2470.427,2021-11-06T16:43:54Z
2021-11-06T14:45:32Z,42.805,6.029,13.2991,4.60014,2470.38,2021-11-06T16:46:58Z
2021-11-06T14:48:35Z,42.805,6.029,13.2995,4.60014,2470.39,2021-11-06T16:50:01Z
2021-11-06T14:51:39Z,42.805,6.029,13.2991,4.60016,2470.38,2021-11-06T16:53:04Z
2021-11-06T14:54:42Z,42.805,6.029,13.2993,4.60013,2470.366,2021-11-06T16:56:07Z
2021-11-06T14:57:45Z,42.805,6.029,13.2993,4.60012,2470.39,2021-11-06T16:59:10Z
2021-11-06T15:00:48Z,42.805,6.029,13.2991,4.60014,2470.427,2021-11-06T17:02:13Z